This is the latest recevied weather packets stored in our database for station/object DK8DX-13. If no packets are shown the sender has not sent any weather packets the latest 10 day(s).
| Time | Temp. | Humidity | Pressure | Rain* | Wind** | Luminosity | Snow |
|---|---|---|---|---|---|---|---|
| 1777731391 | 28.33° C | 32% | 1017.1 hPa | 0 mm | - | - | - |
| 1777731121 | 28.33° C | 33% | 1017.2 hPa | 0 mm | - | - | - |
| 1777730851 | 28.33° C | 34% | 1017.1 hPa | 0 mm | - | - | - |
| 1777730602 | 27.78° C | 34% | 1017.3 hPa | 0 mm | - | - | - |
| 1777730332 | 27.78° C | 35% | 1017.2 hPa | 0 mm | - | - | - |
| 1777730042 | 27.78° C | 33% | 1017.4 hPa | 0 mm | - | - | - |
| 1777729747 | 27.22° C | 35% | 1017.4 hPa | 0 mm | - | - | - |
| 1777729492 | 27.22° C | 35% | 1017.5 hPa | 0 mm | - | - | - |
| 1777729207 | 27.22° C | 35% | 1017.6 hPa | 0 mm | - | - | - |
| 1777728916 | 27.22° C | 34% | 1017.6 hPa | 0 mm | - | - | - |
| 1777728627 | 27.22° C | 34% | 1017.6 hPa | 0 mm | - | - | - |
| 1777728337 | 27.78° C | 33% | 1017.7 hPa | 0 mm | - | - | - |
| 1777728062 | 27.78° C | 33% | 1017.7 hPa | 0 mm | - | - | - |
| 1777727782 | 28.33° C | 32% | 1017.7 hPa | 0 mm | - | - | - |
| 1777727517 | 28.33° C | 32% | 1017.7 hPa | 0 mm | - | - | - |
| 1777727222 | 28.33° C | 32% | 1017.8 hPa | 0 mm | - | - | - |
| 1777726962 | 28.33° C | 32% | 1017.9 hPa | 0 mm | - | - | - |
| 1777726677 | 28.33° C | 32% | 1017.8 hPa | 0 mm | - | - | - |
| 1777726422 | 28.89° C | 33% | 1017.8 hPa | 0 mm | - | - | - |
| 1777726161 | 28.89° C | 33% | 1018 hPa | 0 mm | - | - | - |
| 1777725892 | 28.89° C | 32% | 1018 hPa | 0 mm | - | - | - |
| 1777725612 | 29.44° C | 31% | 1018 hPa | 0 mm | - | - | - |
| 1777725341 | 29.44° C | 31% | 1018 hPa | 0 mm | - | - | - |
| 1777725072 | 29.44° C | 31% | 1018 hPa | 0 mm | - | - | - |
| 1777724782 | 28.89° C | 31% | 1018.2 hPa | 0 mm | - | - | - |
* Rain latest hour (hover to see other rain measurements)
** Current wind speed in m/s (hover to see current wind gust speed)